• In Spain
  • List of Countries
  • For 7 days
  • Water Temperature
  • Satellite Maps
  • Weather Map
  • Weather Widgets
  • user-avatar
    Login

    Hourly Weather Dhaka

    Today, 15 November, Thursday

    Time Temperature Precipitation Wind Pressure Humidity
    00:00 +25°C° 0 mm 2 mps 758 mmHg 65%
    01:00 +24°C° 0 mm 2 mps 757 mmHg 66%
    02:00 +24°C° 0 mm 2 mps 757 mmHg 68%
    03:00 +23°C° 0 mm 2 mps 757 mmHg 69%
    04:00 +23°C° 0 mm 2 mps 758 mmHg 70%
    05:00 +23°C° 0 mm 1 mps 758 mmHg 71%
    06:00 +23°C° 0 mm 1 mps 758 mmHg 74%
    07:00 +25°C° 0 mm 1 mps 758 mmHg 69%
    08:00 +26°C° 0 mm 1 mps 759 mmHg 64%
    09:00 +28°C° 0 mm 2 mps 759 mmHg 59%
    10:00 +29°C° 0 mm 1 mps 759 mmHg 53%
    11:00 +31°C° 0 mm 1 mps 758 mmHg 48%
    12:00 +32°C° 0 mm 1 mps 758 mmHg 42%
    13:00 +32°C° 0 mm 1 mps 757 mmHg 39%
    14:00 +33°C° 0 mm 1 mps 757 mmHg 37%
    15:00 +34°C° 0 mm 2 mps 756 mmHg 34%
    16:00 +32°C° 0 mm 1 mps 756 mmHg 37%
    17:00 +30°C° 0 mm 1 mps 756 mmHg 39%
    18:00 +29°C° 0 mm 1 mps 756 mmHg 42%
    19:00 +28°C° 0 mm 1 mps 757 mmHg 44%
    20:00 +28°C° 0 mm 1 mps 757 mmHg 46%
    21:00 +27°C° 0 mm 2 mps 758 mmHg 48%
    22:00 +26°C° 0 mm 1 mps 758 mmHg 50%
    23:00 +26°C° 0 mm 1 mps 758 mmHg 52%

    Tomorrow, 16 November, Friday

    Time Temperature Precipitation Wind Pressure Humidity
    00:00 +25°C° 0 mm 1 mps 758 mmHg 54%
    01:00 +25°C° 0 mm 1 mps 758 mmHg 56%
    02:00 +24°C° 0 mm 1 mps 758 mmHg 59%
    03:00 +24°C° 0 mm 1 mps 757 mmHg 61%
    04:00 +24°C° 0 mm 1 mps 758 mmHg 63%
    05:00 +23°C° 0 mm 1 mps 758 mmHg 64%
    06:00 +23°C° 0 mm 1 mps 758 mmHg 65%
    07:00 +25°C° 0 mm 1 mps 758 mmHg 60%
    08:00 +26°C° 0 mm 1 mps 759 mmHg 54%
    09:00 +28°C° 0 mm 1 mps 760 mmHg 49%
    10:00 +30°C° 0 mm 1 mps 759 mmHg 44%
    11:00 +31°C° 0 mm 1 mps 759 mmHg 38%
    12:00 +33°C° 0 mm 1 mps 758 mmHg 33%
    13:00 +33°C° 0 mm 1 mps 758 mmHg 31%
    14:00 +34°C° 0 mm 2 mps 757 mmHg 30%
    15:00 +35°C° 0 mm 2 mps 756 mmHg 28%
    16:00 +32°C° 0 mm 2 mps 756 mmHg 32%
    17:00 +30°C° 0 mm 2 mps 756 mmHg 35%
    18:00 +29°C° 0 mm 1 mps 756 mmHg 38%
    19:00 +28°C° 0 mm 1 mps 756 mmHg 41%
    20:00 +27°C° 0 mm 1 mps 757 mmHg 43%
    21:00 +27°C° 0 mm 1 mps 757 mmHg 45%
    22:00 +26°C° 0 mm 1 mps 757 mmHg 48%
    23:00 +26°C° 0 mm 2 mps 757 mmHg 50%

    Day after tomorrow, 17 November, Saturday

    Time Temperature Precipitation Wind Pressure Humidity
    00:00 +25°C° 0 mm 2 mps 758 mmHg 53%
    01:00 +25°C° 0 mm 2 mps 757 mmHg 55%
    02:00 +24°C° 0 mm 1 mps 757 mmHg 57%
    03:00 +24°C° 0 mm 1 mps 757 mmHg 60%
    04:00 +23°C° 0 mm 1 mps 757 mmHg 61%
    05:00 +23°C° 0 mm 1 mps 757 mmHg 62%
    06:00 +23°C° 0 mm 1 mps 757 mmHg 63%
    07:00 +24°C° 0 mm 1 mps 758 mmHg 59%
    08:00 +26°C° 0 mm 2 mps 758 mmHg 56%
    09:00 +28°C° 0 mm 2 mps 759 mmHg 52%
    10:00 +29°C° 0 mm 2 mps 758 mmHg 47%
    11:00 +31°C° 0 mm 2 mps 758 mmHg 42%
    12:00 +32°C° 0 mm 2 mps 757 mmHg 37%
    13:00 +32°C° 0 mm 2 mps 757 mmHg 36%
    14:00 +34°C° 0 mm 2 mps 756 mmHg 35%
    15:00 +34°C° 0 mm 2 mps 755 mmHg 35%
    16:00 +32°C° 0 mm 2 mps 755 mmHg 37%
    17:00 +31°C° 0 mm 2 mps 755 mmHg 39%
    18:00 +30°C° 0 mm 1 mps 756 mmHg 42%
    19:00 +29°C° 0 mm 2 mps 756 mmHg 46%
    20:00 +28°C° 0 mm 2 mps 757 mmHg 50%
    21:00 +27°C° 0 mm 2 mps 757 mmHg 53%
    22:00 +26°C° 0 mm 2 mps 757 mmHg 57%
    23:00 +26°C° 0 mm 2 mps 757 mmHg 61%

    18 November, Sunday

    Time Temperature Precipitation Wind Pressure Humidity
    00:00 +25°C° 0 mm 2 mps 757 mmHg 64%
    01:00 +25°C° 0 mm 2 mps 757 mmHg 66%
    02:00 +24°C° 0 mm 2 mps 757 mmHg 68%
    03:00 +24°C° 0 mm 2 mps 757 mmHg 69%
    04:00 +23°C° 0 mm 2 mps 757 mmHg 72%
    05:00 +23°C° 0 mm 2 mps 758 mmHg 74%
    06:00 +21°C° 0 mm 2 mps 758 mmHg 76%
    07:00 +24°C° 0 mm 2 mps 758 mmHg 72%
    08:00 +25°C° 0 mm 2 mps 759 mmHg 67%
    09:00 +27°C° 0 mm 2 mps 760 mmHg 63%
    10:00 +28°C° 0 mm 2 mps 759 mmHg 56%
    11:00 +30°C° 0 mm 1 mps 759 mmHg 50%
    12:00 +32°C° 0 mm 1 mps 758 mmHg 43%
    13:00 +32°C° 0 mm 1 mps 758 mmHg 40%
    14:00 +32°C° 0 mm 1 mps 757 mmHg 37%
    15:00 +34°C° 0 mm 2 mps 756 mmHg 34%
    16:00 +31°C° 0 mm 2 mps 757 mmHg 36%
    17:00 +30°C° 0 mm 2 mps 757 mmHg 39%
    18:00 +28°C° 0 mm 2 mps 757 mmHg 42%
    19:00 +27°C° 0 mm 2 mps 757 mmHg 44%
    20:00 +27°C° 0 mm 2 mps 758 mmHg 46%
    21:00 +26°C° 0 mm 2 mps 759 mmHg 49%
    22:00 +25°C° 0 mm 2 mps 758 mmHg 51%
    23:00 +25°C° 0 mm 2 mps 758 mmHg 52%

    19 November, Monday

    Time Temperature Precipitation Wind Pressure Humidity
    00:00 +24°C° 0 mm 2 mps 758 mmHg 54%
    01:00 +24°C° 0 mm 2 mps 758 mmHg 57%
    02:00 +23°C° 0 mm 2 mps 758 mmHg 59%
    03:00 +23°C° 0 mm 2 mps 758 mmHg 61%
    04:00 +21°C° 0 mm 2 mps 758 mmHg 63%
    05:00 +21°C° 0 mm 2 mps 759 mmHg 65%
    06:00 +21°C° 0 mm 2 mps 759 mmHg 67%
    07:00 +23°C° 0 mm 2 mps 760 mmHg 62%
    08:00 +25°C° 0 mm 2 mps 760 mmHg 58%
    09:00 +27°C° 0 mm 2 mps 761 mmHg 53%
    10:00 +28°C° 0 mm 2 mps 761 mmHg 47%
    11:00 +29°C° 0 mm 2 mps 760 mmHg 41%
    12:00 +31°C° 0 mm 2 mps 760 mmHg 35%
    13:00 +31°C° 0 mm 2 mps 759 mmHg 34%
    14:00 +31°C° 0 mm 2 mps 758 mmHg 32%
    15:00 +32°C° 0 mm 2 mps 758 mmHg 31%
    16:00 +30°C° 0 mm 2 mps 758 mmHg 34%
    17:00 +28°C° 0 mm 2 mps 758 mmHg 38%
    18:00 +27°C° 0 mm 2 mps 758 mmHg 41%
    19:00 +26°C° 0 mm 2 mps 759 mmHg 44%
    20:00 +26°C° 0 mm 2 mps 759 mmHg 46%
    21:00 +25°C° 0 mm 2 mps 759 mmHg 48%
    22:00 +24°C° 0 mm 2 mps 759 mmHg 50%
    23:00 +24°C° 0 mm 2 mps 759 mmHg 51%

    20 November, Tuesday

    Time Temperature Precipitation Wind Pressure Humidity
    00:00 +23°C° 0 mm 2 mps 759 mmHg 53%
    01:00 +23°C° 0 mm 2 mps 759 mmHg 55%
    02:00 +21°C° 0 mm 2 mps 759 mmHg 56%
    03:00 +21°C° 0 mm 2 mps 759 mmHg 58%
    04:00 +22°C° 0 mm 1 mps 759 mmHg 59%
    05:00 +21°C° 0 mm 1 mps 759 mmHg 61%
    06:00 +21°C° 0 mm 1 mps 760 mmHg 62%
    07:00 +23°C° 0 mm 1 mps 760 mmHg 58%
    08:00 +24°C° 0 mm 1 mps 761 mmHg 53%
    09:00 +26°C° 0 mm 1 mps 762 mmHg 49%
    10:00 +27°C° 0 mm 1 mps 761 mmHg 44%
    11:00 +29°C° 0 mm 1 mps 760 mmHg 40%
    12:00 +28°C° 0 mm 0 mps 760 mmHg 36%
    13:00 +31°C° 0 mm 1 mps 759 mmHg 34%
    14:00 +31°C° 0 mm 2 mps 759 mmHg 33%
    15:00 +31°C° 0 mm 2 mps 758 mmHg 31%
    16:00 +30°C° 0 mm 2 mps 758 mmHg 35%
    17:00 +28°C° 0 mm 2 mps 758 mmHg 38%
    18:00 +27°C° 0 mm 2 mps 758 mmHg 41%
    19:00 +26°C° 0 mm 2 mps 759 mmHg 44%
    20:00 +25°C° 0 mm 2 mps 759 mmHg 46%
    21:00 +25°C° 0 mm 2 mps 760 mmHg 48%
    22:00 +24°C° 0 mm 2 mps 760 mmHg 50%
    23:00 +24°C° 0 mm 2 mps 760 mmHg 52%
    Show more